When you browse on this site, cookies collect data to enhance your experience and personalize the content and advertising you see.
Visit our Privacy Policy to learn more. By continuing to use the site, you agree to this use of cookies and data.
  • In Switzerland
  • List of Countries
  • For 7 days
  • Water Temperature
  • Weather Map
  • Weather Widgets
  • user-avatar
    Login

    Hourly Weather Ipswich

    Today, 13 December, Friday

    Time Temperature Precipitation Wind Pressure Humidity
    00:00 +3°C° 0 mm 5 mps 727 mmHg 94%
    01:00 +5°C° 0.4 mm 4 mps 727 mmHg 95%
    02:00 +5°C° 0.4 mm 4 mps 726 mmHg 96%
    03:00 +5°C° 0.4 mm 3 mps 726 mmHg 97%
    04:00 +5°C° 0.6 mm 4 mps 726 mmHg 96%
    05:00 +5°C° 0.6 mm 5 mps 727 mmHg 95%
    06:00 +5°C° 0 mm 5 mps 727 mmHg 96%
    07:00 +4°C° 0.7 mm 6 mps 728 mmHg 93%
    08:00 +4°C° 0.7 mm 7 mps 729 mmHg 89%
    09:00 +4°C° 0.7 mm 8 mps 730 mmHg 86%
    10:00 +5°C° 0 mm 9 mps 731 mmHg 84%
    11:00 +5°C° 0 mm 9 mps 732 mmHg 83%
    12:00 +5°C° 0 mm 9 mps 733 mmHg 82%
    13:00 +5°C° 0 mm 9 mps 734 mmHg 80%
    14:00 +5°C° 0 mm 9 mps 734 mmHg 78%
    15:00 +5°C° 0 mm 9 mps 735 mmHg 76%
    16:00 +5°C° 0 mm 9 mps 735 mmHg 77%
    17:00 +3°C° 0 mm 9 mps 735 mmHg 77%
    18:00 +3°C° 0 mm 10 mps 736 mmHg 77%
    19:00 +2°C° 0 mm 9 mps 736 mmHg 78%
    20:00 +2°C° 0 mm 8 mps 736 mmHg 79%
    21:00 +2°C° 0 mm 7 mps 736 mmHg 80%
    22:00 +2°C° 0.1 mm 6 mps 735 mmHg 82%
    23:00 +2°C° 0.1 mm 5 mps 735 mmHg 83%

    Tomorrow, 14 December, Saturday

    Time Temperature Precipitation Wind Pressure Humidity
    00:00 +2°C° 0.1 mm 5 mps 734 mmHg 85%
    01:00 +2°C° 0.2 mm 5 mps 734 mmHg 86%
    02:00 +2°C° 0.2 mm 6 mps 734 mmHg 87%
    03:00 +2°C° 0.2 mm 6 mps 734 mmHg 88%
    04:00 +2°C° 0 mm 8 mps 735 mmHg 84%
    05:00 +2°C° 0 mm 10 mps 736 mmHg 80%
    06:00 +2°C° 0 mm 11 mps 737 mmHg 76%
    07:00 +2°C° 0 mm 11 mps 738 mmHg 74%
    08:00 +1°C° 0 mm 10 mps 739 mmHg 72%
    09:00 +1°C° 0 mm 10 mps 740 mmHg 70%
    10:00 +1°C° 0.1 mm 10 mps 740 mmHg 72%
    11:00 +1°C° 0.1 mm 10 mps 741 mmHg 75%
    12:00 +2°C° 0.1 mm 10 mps 741 mmHg 78%
    13:00 +2°C° 0.1 mm 9 mps 742 mmHg 74%
    14:00 +2°C° 0.1 mm 9 mps 742 mmHg 70%
    15:00 +2°C° 0.1 mm 8 mps 743 mmHg 66%
    16:00 +1°C° 0 mm 8 mps 743 mmHg 69%
    17:00 +1°C° 0 mm 8 mps 743 mmHg 71%
    18:00 +1°C° 0 mm 8 mps 743 mmHg 74%
    19:00 +1°C° 0.1 mm 9 mps 742 mmHg 77%
    20:00 +2°C° 0.1 mm 10 mps 741 mmHg 79%
    21:00 +3°C° 0.1 mm 11 mps 740 mmHg 82%
    22:00 +3°C° 0.5 mm 11 mps 739 mmHg 82%
    23:00 +4°C° 0.5 mm 11 mps 739 mmHg 82%

    Day after tomorrow, 15 December, Sunday

    Time Temperature Precipitation Wind Pressure Humidity
    00:00 +5°C° 0.5 mm 10 mps 738 mmHg 82%
    01:00 +3°C° 0 mm 11 mps 739 mmHg 78%
    02:00 +3°C° 0 mm 11 mps 739 mmHg 74%
    03:00 +2°C° 0 mm 11 mps 740 mmHg 70%
    04:00 +2°C° 0 mm 11 mps 741 mmHg 70%
    05:00 +1°C° 0 mm 11 mps 742 mmHg 71%
    06:00 +1°C° 0 mm 11 mps 742 mmHg 72%
    07:00 +1°C° 0 mm 10 mps 743 mmHg 73%
    08:00 +1°C° 0 mm 9 mps 744 mmHg 74%
    09:00 +1°C° 0 mm 8 mps 745 mmHg 75%
    10:00 +2°C° 0 mm 9 mps 745 mmHg 75%
    11:00 +3°C° 0 mm 9 mps 746 mmHg 74%
    12:00 +5°C° 0 mm 9 mps 746 mmHg 73%
    13:00 +5°C° 0 mm 9 mps 746 mmHg 74%
    14:00 +5°C° 0 mm 9 mps 746 mmHg 74%
    15:00 +5°C° 0 mm 10 mps 746 mmHg 74%
    16:00 +3°C° 0.1 mm 9 mps 746 mmHg 75%
    17:00 +3°C° 0.1 mm 9 mps 747 mmHg 76%
    18:00 +4°C° 0.1 mm 8 mps 747 mmHg 77%
    19:00 +4°C° 0 mm 8 mps 747 mmHg 78%
    20:00 +4°C° 0 mm 8 mps 748 mmHg 79%
    21:00 +4°C° 0 mm 7 mps 748 mmHg 81%
    22:00 +4°C° 0.1 mm 7 mps 748 mmHg 82%
    23:00 +4°C° 0.1 mm 7 mps 748 mmHg 83%

    16 December, Monday

    Time Temperature Precipitation Wind Pressure Humidity
    00:00 +4°C° 0.1 mm 7 mps 748 mmHg 84%
    01:00 +4°C° 0.2 mm 7 mps 748 mmHg 85%
    02:00 +5°C° 0.2 mm 7 mps 748 mmHg 86%
    03:00 +5°C° 0.2 mm 7 mps 748 mmHg 86%
    04:00 +5°C° 0.2 mm 7 mps 748 mmHg 86%
    05:00 +5°C° 0.2 mm 6 mps 748 mmHg 86%
    06:00 +5°C° 0.2 mm 6 mps 748 mmHg 85%
    07:00 +6°C° 0.2 mm 5 mps 748 mmHg 86%
    08:00 +6°C° 0.2 mm 5 mps 748 mmHg 87%
    09:00 +6°C° 0.2 mm 5 mps 748 mmHg 89%
    10:00 +6°C° 0.2 mm 5 mps 748 mmHg 86%
    11:00 +7°C° 0.2 mm 6 mps 748 mmHg 83%
    12:00 +8°C° 0.2 mm 6 mps 748 mmHg 80%
    13:00 +7°C° 0.1 mm 5 mps 747 mmHg 82%
    14:00 +7°C° 0.1 mm 5 mps 747 mmHg 83%
    15:00 +7°C° 0.1 mm 4 mps 747 mmHg 85%
    16:00 +7°C° 0 mm 3 mps 747 mmHg 86%
    17:00 +7°C° 0 mm 3 mps 747 mmHg 87%
    18:00 +7°C° 0 mm 3 mps 747 mmHg 88%
    19:00 +7°C° 0.1 mm 2 mps 747 mmHg 88%
    20:00 +6°C° 0.1 mm 2 mps 747 mmHg 88%
    21:00 +6°C° 0.1 mm 2 mps 747 mmHg 88%
    22:00 +7°C° 0.2 mm 1 mps 747 mmHg 88%
    23:00 +7°C° 0.2 mm 1 mps 747 mmHg 88%

    17 December, Tuesday

    Time Temperature Precipitation Wind Pressure Humidity
    00:00 +6°C° 0.2 mm 0 mps 746 mmHg 88%
    01:00 +7°C° 0.2 mm 1 mps 747 mmHg 89%
    02:00 +7°C° 0.2 mm 1 mps 747 mmHg 89%
    03:00 +6°C° 0.2 mm 2 mps 747 mmHg 90%
    04:00 +5°C° 0 mm 2 mps 747 mmHg 90%
    05:00 +5°C° 0 mm 2 mps 748 mmHg 90%
    06:00 +4°C° 0 mm 2 mps 748 mmHg 90%
    07:00 +4°C° 0 mm 2 mps 749 mmHg 90%
    08:00 +4°C° 0 mm 2 mps 749 mmHg 91%
    09:00 +4°C° 0 mm 2 mps 750 mmHg 91%
    10:00 +4°C° 0 mm 2 mps 750 mmHg 88%
    11:00 +4°C° 0 mm 3 mps 751 mmHg 85%
    12:00 +4°C° 0 mm 3 mps 751 mmHg 82%
    13:00 +4°C° 0 mm 3 mps 751 mmHg 82%
    14:00 +5°C° 0 mm 2 mps 752 mmHg 82%
    15:00 +5°C° 0 mm 2 mps 752 mmHg 83%
    16:00 +4°C° 0 mm 2 mps 753 mmHg 83%
    17:00 +3°C° 0 mm 2 mps 753 mmHg 84%
    18:00 +3°C° 0 mm 2 mps 753 mmHg 85%
    19:00 +3°C° 0 mm 2 mps 754 mmHg 84%
    20:00 +3°C° 0 mm 2 mps 754 mmHg 84%
    21:00 +2°C° 0 mm 2 mps 755 mmHg 83%
    22:00 +2°C° 0 mm 2 mps 755 mmHg 85%
    23:00 +1°C° 0 mm 3 mps 756 mmHg 86%

    18 December, Wednesday

    Time Temperature Precipitation Wind Pressure Humidity
    00:00 +1°C° 0 mm 3 mps 756 mmHg 87%
    01:00 +1°C° 0 mm 3 mps 756 mmHg 87%
    02:00 +1°C° 0 mm 3 mps 756 mmHg 87%
    03:00 0°C° 0 mm 3 mps 757 mmHg 87%
    04:00 0°C° 0 mm 3 mps 757 mmHg 86%
    05:00 +1°C° 0 mm 2 mps 757 mmHg 84%
    06:00 +1°C° 0 mm 2 mps 757 mmHg 83%
    07:00 +2°C° 0 mm 2 mps 758 mmHg 82%
    08:00 +1°C° 0 mm 3 mps 758 mmHg 80%
    09:00 +2°C° 0 mm 3 mps 758 mmHg 79%
    10:00 +3°C° 0 mm 3 mps 758 mmHg 77%
    11:00 +4°C° 0 mm 4 mps 758 mmHg 75%
    12:00 +5°C° 0 mm 4 mps 758 mmHg 74%
    13:00 +5°C° 0 mm 4 mps 758 mmHg 78%
    14:00 +5°C° 0 mm 4 mps 758 mmHg 82%
    15:00 +4°C° 0 mm 4 mps 758 mmHg 87%
    16:00 +4°C° 0 mm 4 mps 758 mmHg 88%
    17:00 +4°C° 0 mm 4 mps 758 mmHg 90%
    18:00 +3°C° 0 mm 4 mps 758 mmHg 91%
    19:00 +3°C° 0 mm 4 mps 758 mmHg 91%
    20:00 +3°C° 0 mm 4 mps 758 mmHg 92%
    21:00 +3°C° 0 mm 4 mps 758 mmHg 92%
    22:00 +3°C° 0 mm 4 mps 757 mmHg 91%
    23:00 +3°C° 0 mm 4 mps 757 mmHg 90%
    Show more